Tracking 19146 objects as of 24-Apr-2018
HD Live streaming from Space Station
objects crossing your sky now

FENGYUN 1C DEB

Track FENGYUN 1C DEB now!
10-day predictions


NORAD ID: 32226
Int'l Code: 1999-025CVY
Perigee: 588.7 km
Apogee: 633.7 km
Inclination: 99.5 °
Period: 96.8 minutes
Semi major axis: 6982 km
RCS: 0.006 m2 (small)
Launch date: May 10, 1999
Source: People's Republic of China (PRC)
Launch site: Taiyaun Space Center, China (TSC)

Note: This is SATELLITE DEBRIS
aabbcc
Your satellite tracking list
Your tracking list is empty




NASA's NSSDC Master Catalog

Two Line Element Set (TLE):
1 32226U 99025CVY 18113.93852329 +.00007719 +00000-0 +83972-3 0  9991
2 32226 099.4678 278.5933 0032261 092.6862 267.8043 14.88039479573495
Source of the keplerian elements: AFSPC